Simultaneous Nadir Overpasses (SNOs) Predictions

Prediction of SNOs between GOES-17 and AQUA Satellite Orbit:

Table of predicted SNOs for the next 14.0 days since TLE Epoch: 7/8/2023
Index Date Time (GOES-17) GOES-17 Lat,Lon AQUA Lat,Lon Distance(km) Time Diff (sec)
1 07/08/2023 08:48:00 -0.01,-104.73 -0.02,-104.68 5.16 80
2 07/10/2023 08:33:48 -0.01,-104.74 -0.79,-101.23 400.02 80
3 07/10/2023 20:54:41 0.02,-104.72 -0.29,-106.28 177.44 80
4 07/12/2023 20:43:07 0.01,-104.72 0.40,-102.80 217.98 80
5 07/13/2023 09:03:51 -0.01,-104.75 0.65,-107.83 349.98 80
6 07/15/2023 08:46:57 -0.01,-104.75 -0.08,-104.35 45.30 80
7 07/17/2023 08:32:43 -0.00,-104.76 -0.84,-100.88 440.80 80
8 07/17/2023 20:53:35 0.00,-104.73 -0.27,-105.93 136.98 80
9 07/19/2023 20:42:01 0.01,-104.74 0.52,-102.47 259.24 80
10 07/20/2023 09:02:44 -0.01,-104.77 0.57,-107.48 307.96 80
